Location: Bremen
(53.0793°N, 8.8017°E)
Time: 04:58:05
(UTC+02:00)

Explorer 7 - Pass Details

Date: 18 April 2024
Orbit: 467 x 626 km, 50.3° (Epoch: 17 May)

Event Time Altitude Azimuth Distance (km) Brightness Sun altitude
Rises 18:53:21 0° 280° (W) 2,887 12.4 13.5°
Reaches altitude 10° 18:56:05 10° 265° (W) 1,957 12.5 13.1°
Maximum altitude 18:59:31 22° 215° (SW) 1,317 9.3 12.6°
Drops below altitude 10° 19:02:50 10° 165° (SSE) 1,881 9.4 12.1°
Sets 19:05:25 0° 150° (SSE) 2,742 10.1 11.7°
